Orbital Elements at Epoch 2459200.5 (2020-Dec-17.0) TDB
Reference: JPL 13 (heliocentric ecliptic J2000)
Element | Value | Uncertainty (1-sigma) | Units |
e | .1137898056455711 | 5.5445e-08 | |
a | 2.797111923032498 | 2.7617e-08 | au |
q | 2.47882910094172 | 1.5295e-07 | au |
i | 9.65548833680538 | 7.0681e-06 | deg |
node | 42.60495280237703 | 3.015e-05 | deg |
peri | 224.5014953137803 | 4.3077e-05 | deg |
M | 144.0897637774854 | 3.3036e-05 | deg |
tp | 2458516.598081228925 (2019-Feb-02.09808123) | 0.0001561 | TDB |
period | 1708.689668877488 4.68 | 2.5306e-05 6.928e-08 | d yr |
n | .2106877606607755 | 3.1203e-09 | deg/d |
Q | 3.115394745123275 | 3.076e-08 | au |
|
| | Orbit Determination Parameters
Additional Information
|